Location: Pallagorio
(39.3000°N, 16.9000°E)
Time: 20:27:49
(UTC+00:00)

Meteor 2-10 Rocket - Pass Details

Date: 24 January 2021
Orbit: 733 x 885 km, 81.2° (Epoch: 02 March)

Event Time Altitude Azimuth Distance (km) Brightness Sun altitude
Rises 16:50:45 0° 348° (NNW) 3,361 6.8 -9.3°
Reaches altitude 10° 16:53:13 10° 347° (NNW) 2,401 6.0 -9.8°
Maximum altitude 16:58:36 75° 263° (W) 816 3.8 -10.8°
Drops below altitude 10° 17:03:44 10° 179° (S) 2,289 6.1 -11.8°
Sets 17:06:02 0° 177° (S) 3,192 6.9 -12.2°
